User: anonymous   Login
Location: Ailly
(50.0793°N, 1.9944°E)
Time: 18:14:20
(UTC+00:00)
Language:

Cosmos 1269 Rocket - Orbit

View from above orbital plane
View from above orbital plane
View from above satellite
View from above satellite

Ground track
Ground track

The orbit is defined by the following mean orbital elements,

1 12443U          26064.50915909 +.00000000 +00000-0 +96200-4 0 00004
2 12443  74.0519  99.0706 0003342 148.5025 211.6328 14.36030440    08
Epoch (UTC): 05 March 2026 12:13:11
Eccentricity: 0.0003342
inclination: 74.0519°
perigee height: 769 km
apogee height: 774 km
right ascension of ascending node: 99.0706°
argument of perigee: 148.5025°
revolutions per day: 14.36030440
mean anomaly at epoch: 211.6328°

The dashed part of the orbit path shows where the satellite is in the earth's shadow,  

DLR